| time (UTC) | temp F | wind direction | speed MPH | gust MPH | rain 1hr in | rain 24hr in | rain mn in | humidity % | barometer mb |
| 20260504010052 | 73 | 103 | 4.0 | 7.0 | 0.00 | 0.00 | 0.00 | 48 | 1012.9 |
| 20260504004548 | 74 | 101 | 1.0 | 2.0 | 0.00 | 0.00 | 0.00 | 50 | 1013.1 |
| 20260504003048 | 76 | 105 | 2.0 | 3.0 | 0.00 | 0.00 | 0.00 | 45 | 1013.3 |
| 20260504001551 | 77 | 103 | 1.0 | 6.0 | 0.00 | 0.00 | 0.00 | 45 | 1013.5 |
| 20260504000053 | 78 | 0 | 0.0 | 4.0 | 0.00 | 0.00 | 0.00 | 43 | 1013.5 |
| 20260503234551 | 80 | 88 | 1.0 | 6.0 | 0.00 | 0.00 | 0.00 | 42 | 1013.4 |
| 20260503233056 | 81 | 104 | 2.0 | 4.0 | 0.00 | 0.00 | 0.00 | 41 | 1013.6 |
| 20260503231548 | 81 | 0 | 0.0 | 3.0 | 0.00 | 0.00 | 0.00 | 31 | 1013.7 |
| 20260503230103 | 82 | 0 | 0.0 | 3.0 | 0.00 | 0.00 | 0.00 | 31 | 1013.7 |
| 20260503224558 | 81 | 0 | 1.0 | 3.0 | 0.00 | 0.00 | 0.00 | 31 | 1014.1 |
| 20260503223054 | 81 | 81 | 1.0 | 4.0 | 0.00 | 0.00 | 0.00 | 34 | 1014.0 |
| 20260503221556 | 81 | 0 | 0.0 | 9.0 | 0.00 | 0.00 | 0.00 | 31 | 1014.3 |
| 20260503220054 | 82 | 261 | 0.0 | 5.0 | 0.00 | 0.00 | 0.00 | 31 | 1014.5 |
| 20260503214553 | 81 | 64 | 4.0 | 7.0 | 0.00 | 0.00 | 0.00 | 31 | 1014.5 |
| 20260503213100 | 82 | 50 | 2.0 | 8.0 | 0.00 | 0.00 | 0.00 | 32 | 1015.1 |
| 20260503211610 | 81 | 0 | 1.0 | 5.0 | 0.00 | 0.00 | 0.00 | 31 | 1015.3 |
| 20260503210053 | 81 | 232 | 3.0 | 8.0 | 0.00 | 0.00 | 0.00 | 31 | 1015.5 |
| 20260503204553 | 80 | 121 | 2.0 | 8.0 | 0.00 | 0.00 | 0.00 | 32 | 1015.8 |
| 20260503203053 | 80 | 126 | 4.0 | 9.0 | 0.00 | 0.00 | 0.00 | 35 | 1016.2 |
| 20260503201554 | 79 | 105 | 6.0 | 13.0 | 0.00 | 0.00 | 0.00 | 35 | 1016.4 |
| 20260503194602 | 79 | 36 | 4.0 | 12.0 | 0.00 | 0.00 | 0.00 | 37 | 1017.1 |
| 20260503193101 | 78 | 96 | 6.0 | 13.0 | 0.00 | 0.00 | 0.00 | 38 | 1017.4 |
| 20260503191555 | 77 | 87 | 5.0 | 13.0 | 0.00 | 0.00 | 0.00 | 38 | 1017.7 |
| 20260503190056 | 76 | 81 | 6.0 | 12.0 | 0.00 | 0.00 | 0.00 | 40 | 1018.1 |
| 20260503184601 | 76 | 132 | 2.0 | 8.0 | 0.00 | 0.00 | 0.00 | 43 | 1018.6 |
| 20260503183048 | 75 | 150 | 4.0 | 7.0 | 0.00 | 0.00 | 0.00 | 45 | 1019.2 |
| 20260503181610 | 74 | 68 | 2.0 | 8.0 | 0.00 | 0.00 | 0.00 | 43 | 1019.4 |
| 20260503180110 | 73 | 82 | 1.0 | 7.0 | 0.00 | 0.00 | 0.00 | 45 | 1019.5 |
| 20260503174556 | 72 | 117 | 2.0 | 8.0 | 0.00 | 0.00 | 0.00 | 44 | 1019.9 |
| 20260503173106 | 70 | 86 | 1.0 | 6.0 | 0.00 | 0.00 | 0.00 | 50 | 1020.1 |
| 20260503171552 | 71 | 76 | 1.0 | 5.0 | 0.00 | 0.00 | 0.00 | 47 | 1020.7 |
| 20260503081549 | 52 | 0 | 0.0 | 0.0 | 0.00 | 0.00 | 0.00 | 79 | 1020.4 |
| 20260503071600 | 55 | 158 | 1.0 | 4.0 | 0.00 | 0.00 | 0.00 | 73 | 1021.3 |
| 20260503054548 | 55 | 0 | 0.0 | 0.0 | 0.00 | 0.00 | 0.00 | 74 | 1021.6 |
| 20260503053048 | 56 | 0 | 0.0 | 0.0 | 0.00 | 0.00 | 0.00 | 72 | 1021.8 |
| 20260503051550 | 56 | 0 | 0.0 | 0.0 | 0.00 | 0.00 | 0.00 | 70 | 1021.7 |
| 20260503050053 | 57 | 0 | 0.0 | 0.0 | 0.00 | 0.00 | 0.00 | 69 | 1021.9 |
| 20260503044552 | 57 | 0 | 0.0 | 0.0 | 0.00 | 0.00 | 0.00 | 70 | 1021.8 |
| 20260503043052 | 57 | 0 | 0.0 | 0.0 | 0.00 | 0.00 | 0.00 | 67 | 1021.6 |
| 20260503041549 | 57 | 0 | 0.0 | 0.0 | 0.00 | 0.00 | 0.00 | 71 | 1021.5 |
| 20260503040052 | 58 | 0 | 0.0 | 0.0 | 0.00 | 0.00 | 0.00 | 70 | 1021.3 |
| 20260503034557 | 58 | 0 | 0.0 | 0.0 | 0.00 | 0.00 | 0.00 | 69 | 1021.2 |
| 20260503033053 | 58 | 0 | 0.0 | 0.0 | 0.00 | 0.00 | 0.00 | 66 | 1021.1 |
| 20260503031547 | 59 | 0 | 0.0 | 1.0 | 0.00 | 0.00 | 0.00 | 65 | 1020.6 |
| 20260503030121 | 59 | 117 | 2.0 | 3.0 | 0.00 | 0.00 | 0.00 | 62 | 1020.5 |
| 20260503024548 | 60 | 96 | 2.0 | 3.0 | 0.00 | 0.05 | 0.00 | 61 | 1020.4 |
| 20260503023051 | 60 | 109 | 2.0 | 4.0 | 0.00 | 0.05 | 0.00 | 60 | 1020.0 |
| 20260503021547 | 62 | 105 | 2.0 | 4.0 | 0.00 | 0.05 | 0.00 | 56 | 1020.1 |
| 20260503020050 | 63 | 108 | 3.0 | 7.0 | 0.00 | 0.05 | 0.00 | 54 | 1020.1 |
| 20260503014603 | 63 | 106 | 4.0 | 7.0 | 0.00 | 0.12 | 0.00 | 52 | 1020.0 |
| 20260503013053 | 64 | 111 | 3.0 | 7.0 | 0.00 | 0.12 | 0.00 | 53 | 1019.8 |
| 20260503011553 | 67 | 119 | 4.0 | 8.0 | 0.00 | 0.12 | 0.00 | 45 | 1019.6 |